Location: Haieshausen
(51.8387°N, 9.9720°E)
Time: 04:21:20
(UTC+00:00)

Cosmos 1441 Rocket - Pass Details

Date: 14 July 2020
Orbit: 495 x 541 km, 81.1° (Epoch: 10 August)

Event Time Altitude Azimuth Distance (km) Brightness Sun altitude
Exits shadow 00:10:47 27° 223° (SW) 1,063 4.3 -15.9°
Maximum altitude 00:12:40 51° 287° (WNW) 683 3.8 -15.8°
Drops below altitude 10° 00:16:32 10° 4° (N) 1,795 7.3 -15.7°
Sets 00:18:44 0° 10° (N) 2,683 8.7 -15.6°
